Weather History for KFTK - July, 2014

Change the Weather History Date:

Wednesday, July 16, 2014

  Actual Average Record
Temperature  
Mean Temperature 63 °F -  
Max Temperature 74 °F 83 °F 91 °F (2006)
Min Temperature 52 °F 65 °F 52 °F (2014)
Degree Days  
Heating Degree Days 2    
Growing Degree Days 13 (Base 50)    
Moisture  
Dew Point 55 °F    
Average Humidity 76    
Maximum Humidity 100    
Minimum Humidity 52    
Precipitation  
Precipitation 0.00 in - - ()
Sea Level Pressure  
Sea Level Pressure 30.01 in    
Wind  
Wind Speed 4 mph (WNW)    
Max Wind Speed 8 mph    
Max Gust Speed -    
Visibility 10 miles    
Events      
Averages and records for this station are not official NWS values.
T = Trace of Precipitation, MM = Missing Value Source: NWS Daily Summary

Daily Weather History Graph

Daily Weather History Graph

Search for Another Location

Airport or City:

Trip Planner

Search our weather history database for the weather conditions in past years. The results will help you decide how hot, cold, wet, or windy it might be!

Date:

Astronomy

Jul. 16, 2014 Rise Set
Actual Time 6:34 AM EDT 9:05 PM EDT
Civil Twilight 6:03 AM EDT 9:35 PM EDT
Nautical Twilight 5:26 AM EDT 10:13 PM EDT
Astronomical Twilight 4:44 AM EDT 10:55 PM EDT
Moon 11:55 PM EDT (7/16) 11:31 AM EDT (7/16)
Length of Visible Light 15h 31m
Length of Day
14h 30m
Waning Gibbous, 76% of the Moon is Illuminated
Jul 16
Waning Gibbous
Jul 18
Last Quarter
Jul 26
New
Aug 3
First Quarter
Aug 10
Full

Hourly Weather History & Observations

Time (EDT) Temp. Dew Point Humidity Pressure Visibility Wind Dir Wind Speed Gust Speed Precip Events Conditions
12:58 AM 55.0 °F 53.6 °F 95% 29.99 in 10.0 mi West 2.3 mph - N/A   Clear
1:58 AM 54.3 °F 54.0 °F 99% 29.98 in 10.0 mi NNW 1.2 mph - N/A   Clear
2:58 AM 54.1 °F 53.4 °F 97% 29.98 in 10.0 mi Calm Calm - N/A   Clear
3:58 AM 52.2 °F 52.2 °F 100% 29.97 in 10.0 mi West 2.3 mph - N/A   Clear
4:58 AM 54.9 °F 53.6 °F 96% 29.98 in 10.0 mi NW 5.8 mph - N/A   Clear
5:58 AM 53.8 °F 53.4 °F 99% 29.98 in 10.0 mi Calm Calm - N/A   Clear
6:58 AM 53.1 °F 53.1 °F 100% 30.00 in 10.0 mi WNW 2.3 mph - N/A   Clear
7:58 AM 57.4 °F 56.1 °F 96% 30.01 in 10.0 mi West 2.3 mph - N/A   Clear
8:58 AM 62.4 °F 56.8 °F 82% 30.02 in 10.0 mi NNW 8.1 mph - N/A   Clear
9:58 AM 65.1 °F 56.5 °F 74% 30.03 in 10.0 mi WNW 4.6 mph - N/A   Clear
10:58 AM 67.5 °F 56.5 °F 68% 30.03 in 10.0 mi Variable 4.6 mph - N/A   Partly Cloudy
11:08 AM 68.0 °F 55.4 °F 64% 30.03 in 10.0 mi West 5.8 mph - N/A   Mostly Cloudy
11:18 AM 68.0 °F 55.4 °F 64% 30.03 in 10.0 mi NW 8.1 mph - N/A   Scattered Clouds
11:58 AM 69.3 °F 55.2 °F 61% 30.03 in 10.0 mi Variable 5.8 mph - N/A   Scattered Clouds
12:58 PM 69.1 °F 54.0 °F 58% 30.03 in 10.0 mi West 8.1 mph - N/A   Mostly Cloudy
1:58 PM 70.3 °F 54.3 °F 57% 30.02 in 10.0 mi Variable 1.2 mph - N/A   Scattered Clouds
2:58 PM 73.2 °F 54.7 °F 52% 30.01 in 10.0 mi NW 5.8 mph - N/A   Scattered Clouds
3:58 PM 72.7 °F 54.3 °F 52% 30.00 in 10.0 mi Variable 3.5 mph - N/A   Mostly Cloudy
4:58 PM 74.3 °F 56.3 °F 53% 29.99 in 10.0 mi West 8.1 mph - N/A   Scattered Clouds
5:58 PM 74.7 °F 55.9 °F 52% 29.98 in 10.0 mi Variable 5.8 mph - N/A   Scattered Clouds
6:58 PM 72.7 °F 54.1 °F 52% 29.99 in 10.0 mi WNW 6.9 mph - N/A   Clear
7:58 PM 72.1 °F 55.6 °F 56% 30.00 in 10.0 mi WNW 4.6 mph - N/A   Clear
8:58 PM 65.5 °F 57.2 °F 75% 30.00 in 10.0 mi WNW 5.8 mph - N/A   Clear
9:58 PM 60.4 °F 57.7 °F 91% 30.01 in 10.0 mi NW 4.6 mph - N/A   Scattered Clouds
10:58 PM 59.9 °F 56.7 °F 89% 30.03 in 10.0 mi North 3.5 mph - N/A   Partly Cloudy
11:58 PM 58.3 °F 55.9 °F 92% 30.03 in 10.0 mi Calm Calm - N/A   Clear